Location: Ocean City
(38.3360°N, 75.0850°W)
Time: 03:09:07
(UTC-05:00)

Transit 2A - Visible Passes

Search period start: 21 November 2019 00:00
Search period end: 01 December 2019 00:00
Orbit: 601 x 957 km, 66.7° (Epoch: 20 November)

Date Brightness Start Highest point End Pass type
(mag) Time Alt. Az. Time Alt. Az. Time Alt. Az.
25 Nov 8.2 18:59:15 10° NNW 18:59:18 10° NNW 18:59:18 10° NNW visible
26 Nov 7.5 18:25:28 10° N 18:26:38 16° N 18:26:38 16° N visible
27 Nov 7.2 17:51:54 10° N 17:54:10 17° NE 17:54:10 17° NE visible
27 Nov 8.1 19:33:56 10° NW 19:34:43 15° NW 19:34:43 15° NW visible
28 Nov 7.4 17:18:51 10° NNE 17:20:30 12° NE 17:22:02 10° ENE visible
28 Nov 6.5 18:59:42 10° NNW 19:02:36 41° NW 19:02:36 41° NW visible
29 Nov 5.5 18:25:37 10° NNW 18:30:00 66° ENE 18:31:04 48° ESE visible
29 Nov 8.8 20:11:30 10° W 20:11:43 10° W 20:11:43 10° W visible
30 Nov 5.9 17:51:40 10° NNW 17:55:51 41° ENE 18:00:15 10° SE visible
30 Nov 8.3 19:35:41 10° WNW 19:38:40 18° WSW 19:41:47 10° SSW visible
